Weather History for KSBS - June, 2013

Change the Weather History Date:

Thursday, June 20, 2013

  Actual Average Record
Temperature  
Mean Temperature 60 °F -  
Max Temperature 81 °F 77 °F 89 °F (1936)
Min Temperature 39 °F 36 °F 26 °F (1924)
Degree Days  
Heating Degree Days 5    
Growing Degree Days 10 (Base 50)    
Moisture  
Dew Point 19 °F    
Average Humidity 25    
Maximum Humidity 56    
Minimum Humidity 6    
Precipitation  
Precipitation 0.00 in - - ()
Sea Level Pressure  
Sea Level Pressure 30.04 in    
Wind  
Wind Speed 3 mph (South)    
Max Wind Speed 9 mph    
Max Gust Speed 16 mph    
Visibility 10 miles    
Events      
Averages and records for this station are not official NWS values.
T = Trace of Precipitation, MM = Missing Value Source: NWS Daily Summary

Daily Weather History Graph

Daily Weather History Graph

Search for Another Location

Airport or City:

Trip Planner

Search our weather history database for the weather conditions in past years. The results will help you decide how hot, cold, wet, or windy it might be!

Date:

Astronomy

Jun. 20, 2013 Rise Set
Actual Time 5:36 AM MDT 8:41 PM MDT
Civil Twilight 5:03 AM MDT 9:14 PM MDT
Nautical Twilight 4:21 AM MDT 9:57 PM MDT
Astronomical Twilight 3:31 AM MDT 10:46 PM MDT
Moon 5:46 PM MDT (6/20) 3:06 AM MDT (6/20)
Length of Visible Light 16h 10m
Length of Day
15h 04m
Waxing Gibbous, 89% of the Moon is Illuminated
Jun 20
Waxing Gibbous
Jun 23
Full
Jun 29
Last Quarter
Jul 8
New
Jul 15
First Quarter

Hourly Weather History & Observations

Time (MDT) Temp. Windchill Dew Point Humidity Pressure Visibility Wind Dir Wind Speed Gust Speed Precip Events Conditions
12:15 AM 51.1 °F - 20.1 °F 30% 29.97 in 10.0 mi SE 8.1 mph - N/A   Clear
12:35 AM 48.0 °F - 23.0 °F 37% 29.99 in 10.0 mi Calm Calm - N/A   Clear
12:55 AM 50.4 °F - 20.1 °F 30% 30.00 in 10.0 mi Calm Calm - N/A   Clear
1:15 AM 51.3 °F - 18.3 °F 27% 30.01 in 10.0 mi ENE 5.8 mph - N/A   Clear
1:35 AM 52.0 °F - 17.8 °F 26% 30.04 in 10.0 mi Calm Calm - N/A   Clear
1:55 AM 48.4 °F - 19.6 °F 32% 30.05 in 10.0 mi East 3.5 mph - N/A   Clear
2:15 AM 48.0 °F - 22.1 °F 36% 30.05 in 10.0 mi East 3.5 mph - N/A   Clear
2:35 AM 48.7 °F - 20.5 °F 33% 30.05 in 10.0 mi East 3.5 mph - N/A   Clear
2:55 AM 49.5 °F - 19.4 °F 31% 30.06 in 10.0 mi Calm Calm - N/A   Clear
3:15 AM 48.4 °F - 20.3 °F 33% 30.06 in 10.0 mi Calm Calm - N/A   Clear
3:35 AM 48.0 °F - 20.5 °F 34% 30.07 in 10.0 mi Calm Calm - N/A   Clear
3:55 AM 45.5 °F - 21.4 °F 38% 30.07 in 10.0 mi Calm Calm - N/A   Clear
4:15 AM 42.3 °F - 23.5 °F 48% 30.08 in 10.0 mi Calm Calm - N/A   Clear
4:35 AM 41.7 °F 38.8 °F 24.3 °F 50% 30.08 in 10.0 mi East 4.6 mph - N/A   Clear
4:55 AM 41.4 °F 38.4 °F 24.8 °F 52% 30.08 in 10.0 mi ESE 4.6 mph - N/A   Clear
5:15 AM 40.3 °F - 24.4 °F 53% 30.08 in 10.0 mi Calm Calm - N/A   Clear
5:35 AM 40.6 °F - 25.2 °F 54% 30.08 in 10.0 mi Calm Calm - N/A   Clear
5:55 AM 39.2 °F - 24.8 °F 56% 30.09 in 10.0 mi Calm Calm - N/A   Clear
6:15 AM 39.6 °F - 25.0 °F 56% 30.09 in 10.0 mi Calm Calm - N/A   Clear
6:35 AM 41.0 °F - 25.2 °F 53% 30.09 in 10.0 mi Calm Calm - N/A   Clear
6:55 AM 42.6 °F - 25.9 °F 52% 30.09 in 10.0 mi Calm Calm - N/A   Clear
7:15 AM 42.8 °F - 27.5 °F 55% 30.09 in 10.0 mi Calm Calm - N/A   Clear
7:35 AM 44.8 °F - 26.4 °F 49% 30.09 in 10.0 mi Calm Calm - N/A   Clear
7:55 AM 47.5 °F - 23.2 °F 38% 30.09 in 10.0 mi Calm Calm - N/A   Clear
8:15 AM 49.6 °F - 25.3 °F 39% 30.09 in 10.0 mi Calm Calm - N/A   Clear
8:35 AM 51.3 °F - 25.7 °F 37% 30.08 in 10.0 mi Calm Calm - N/A   Clear
8:55 AM 53.6 °F - 23.5 °F 31% 30.08 in 10.0 mi Calm Calm - N/A   Clear
9:15 AM 55.8 °F - 23.0 °F 28% 30.08 in 10.0 mi Calm Calm - N/A   Clear
9:35 AM 58.3 °F - 20.8 °F 23% 30.07 in 10.0 mi Calm Calm - N/A   Clear
9:55 AM 59.9 °F - 25.9 °F 27% 30.07 in 10.0 mi Calm Calm - N/A   Clear
10:15 AM 61.2 °F - 25.7 °F 26% 30.07 in 10.0 mi Calm Calm - N/A   Clear
10:35 AM 64.0 °F - 24.8 °F 23% 30.06 in 10.0 mi Calm Calm - N/A   Clear
10:55 AM 65.3 °F - 21.7 °F 19% 30.06 in 10.0 mi Calm Calm - N/A   Clear
11:15 AM 66.9 °F - 21.9 °F 18% 30.06 in 10.0 mi West 4.6 mph - N/A   Clear
11:35 AM 68.7 °F - 21.6 °F 17% 30.06 in 10.0 mi SSW 4.6 mph - N/A   Clear
11:55 AM 71.1 °F - 23.4 °F 17% 30.05 in 10.0 mi Calm Calm - N/A   Clear
12:15 PM 72.9 °F - 19.0 °F 13% 30.04 in 10.0 mi WNW 8.1 mph - N/A   Clear
12:35 PM 73.8 °F - 12.4 °F 10% 30.04 in 10.0 mi WSW 5.8 mph 16.1 mph N/A   Clear
12:55 PM 74.3 °F - 9.1 °F 8% 30.04 in 10.0 mi South 3.5 mph - N/A   Clear
1:15 PM 75.4 °F - 11.1 °F 9% 30.04 in 10.0 mi WSW 4.6 mph - N/A   Clear
1:35 PM 75.7 °F - 10.8 °F 8% 30.03 in 10.0 mi Calm Calm - N/A   Clear
1:55 PM 76.8 °F - 12.0 °F 8% 30.02 in 10.0 mi West 5.8 mph - N/A   Clear
2:15 PM 77.2 °F - 9.7 °F 8% 30.02 in 10.0 mi South 3.5 mph - N/A   Clear
2:35 PM 77.7 °F - 12.7 °F 8% 30.02 in 10.0 mi West 9.2 mph - N/A   Clear
2:55 PM 78.4 °F - 13.1 °F 8% 30.02 in 10.0 mi WNW 8.1 mph - N/A   Clear
3:15 PM 78.6 °F - 13.1 °F 8% 30.02 in 10.0 mi West 4.6 mph - N/A   Clear
3:35 PM 78.3 °F - 12.4 °F 8% 30.01 in 10.0 mi South 3.5 mph - N/A   Clear
3:55 PM 79.2 °F - 12.2 °F 8% 30.00 in 10.0 mi SSW 4.6 mph - N/A   Clear
4:15 PM 79.2 °F - 11.3 °F 8% 30.00 in 10.0 mi Calm Calm - N/A   Clear
4:35 PM 80.4 °F - 12.9 °F 8% 29.99 in 10.0 mi West 3.5 mph - N/A   Clear
4:55 PM 79.9 °F - 10.0 °F 7% 29.99 in 10.0 mi Calm Calm - N/A   Clear
5:15 PM 81.1 °F - 8.8 °F 6% 29.98 in 10.0 mi SE 3.5 mph - N/A   Clear
5:35 PM 81.5 °F - 9.3 °F 6% 29.98 in 10.0 mi SE 3.5 mph - N/A   Clear
5:55 PM 81.3 °F - 8.8 °F 6% 29.98 in 10.0 mi East 3.5 mph - N/A   Clear
6:15 PM 80.8 °F - 10.6 °F 7% 29.98 in 10.0 mi SE 6.9 mph - N/A   Clear
6:35 PM 79.5 °F - 10.2 °F 7% 29.98 in 10.0 mi SSW 5.8 mph - N/A   Clear
6:55 PM 79.7 °F - 12.9 °F 8% 29.98 in 10.0 mi Calm Calm - N/A   Clear
7:15 PM 78.8 °F - 14.7 °F 9% 29.98 in 10.0 mi Calm Calm - N/A   Clear
7:35 PM 76.8 °F - 17.8 °F 11% 29.99 in 10.0 mi West 4.6 mph - N/A   Clear
7:55 PM 75.2 °F - 20.1 °F 13% 29.99 in 10.0 mi NNW 4.6 mph - N/A   Clear
8:15 PM 72.7 °F - 13.5 °F 10% 30.00 in 10.0 mi North 4.6 mph - N/A   Clear
8:35 PM 71.8 °F - 9.0 °F 9% 30.01 in 10.0 mi Calm Calm - N/A   Clear
8:55 PM 64.6 °F - 20.8 °F 19% 30.01 in 10.0 mi ESE 5.8 mph - N/A   Clear
9:15 PM 63.7 °F - 24.1 °F 22% 30.01 in 10.0 mi ESE 5.8 mph - N/A   Clear
9:35 PM 63.0 °F - 21.2 °F 20% 30.02 in 10.0 mi Calm Calm - N/A   Clear
9:55 PM 60.6 °F - 23.0 °F 24% 30.02 in 10.0 mi SE 6.9 mph - N/A   Clear
10:15 PM 59.9 °F - 23.7 °F 25% 30.04 in 10.0 mi Calm Calm - N/A   Clear
10:35 PM 60.1 °F - 22.1 °F 23% 30.04 in 10.0 mi Calm Calm - N/A   Clear
10:55 PM 56.1 °F - 24.1 °F 29% 30.04 in 10.0 mi Calm Calm - N/A   Clear
11:15 PM 54.1 °F - 23.9 °F 31% 30.05 in 10.0 mi Calm Calm - N/A   Clear
11:35 PM 55.2 °F - 24.6 °F 31% 30.05 in 10.0 mi ESE 4.6 mph - N/A   Clear
11:55 PM 51.4 °F - 28.0 °F 40% 30.05 in 10.0 mi Calm Calm - N/A   Clear